Orbital Elements at Epoch 2459000.5 (2020-May-31.0) TDB
Reference: JPL 17 (heliocentric ecliptic J2000)
Element | Value | Uncertainty (1-sigma) | Units |
e | .05129075216623383 | 6.93e-08 | |
a | 2.471809090247237 | 1.2173e-08 | au |
q | 2.345028142797122 | 1.6874e-07 | au |
i | 4.279649867907506 | 5.2032e-06 | deg |
node | 221.0644383185663 | 6.3919e-05 | deg |
peri | 158.3606338198882 | 7.7324e-05 | deg |
M | 265.1330671869516 | 4.2747e-05 | deg |
tp | 2459374.553026584432 (2021-Jun-09.05302658) | 0.00016905 | TDB |
period | 1419.452337894853 3.89 | 1.0486e-05 2.871e-08 | d yr |
n | .2536189418898736 | 1.8735e-09 | deg/d |
Q | 2.598590037697352 | 1.2798e-08 | au |
|
| | Orbit Determination Parameters
Additional Information
|